Starlink 32547

operational
NORAD ID: 61919 Int'l Des: 2024-207 Owner: SPXS Country: US Constellation: starlink
LEOCIRCULAR

About Starlink 32547

Description loading...

Live Position

Loading 3D Globe...

Upcoming Passes

Altitude History

Altitude vs Time

uPlot chart will show altitude changes over time

Two-Line Element Set

1 61919U 24207H 25345.59376893 .00043715 00000-0 15875-2 0 9998
2 61919 43.0013 58.8543 0001348 261.4883 98.5816 15.27603701 61242
Epoch: Dec 11, 2025 • Age: 10 hours

Current Status

Altitude 484.2 km
Velocity 7.63 km/s
Sub-Earth Point 29.83°N, 15.32°E
Launch Date Nov 11, 2024
Age 1 years
Type internet

Technical Details

Classification Payload
Mass 730.00 kg
Dry Mass 700.00 kg
Total Mass 730.00 kg
Length 0.30 m
Diameter 4.10 m
Span 29.00 m
Shape Box + pan
Manufacturer SPXS
Bus Type Starlink V2M
Phase Status In Orbit
Owner/State SPXS/US

Large Constellations

Loading constellations...